Weather History for Hat Yai, Thailand

Change the Weather History Date:

Sunday, September 8, 2013

  Actual Average Record
Temperature  
Mean Temperature 82 °F -  
Max Temperature 90 °F 86 °F 93 °F (2001)
Min Temperature 73 °F 74 °F 73 °F (1996)
Cooling Degree Days 16    
Growing Degree Days 32 (Base 50)    
Moisture  
Dew Point 73 °F    
Average Humidity 82    
Maximum Humidity 94    
Minimum Humidity 47    
Precipitation  
Precipitation 1.14 in - - ()
Sea Level Pressure  
Sea Level Pressure 29.85 in    
Wind  
Wind Speed 3 mph ()    
Max Wind Speed 13 mph    
Max Gust Speed -    
Visibility 5.5 miles    
Events Rain    
Averages and records for this station are not official NWS values.
T = Trace of Precipitation, MM = Missing Value Source: Averaged Metar Reports

Daily Weather History Graph

Daily Weather History Graph

Search for Another Location

Airport:

Trip Planner

Search our weather history database for the weather conditions in past years. The results will help you decide how hot, cold, wet, or windy it might be!

Date:

Astronomy

Sep. 08, 2013 Rise Set
Actual Time 6:10 AM ICT 6:22 PM ICT
Civil Twilight 5:49 AM ICT 6:43 PM ICT
Nautical Twilight 5:24 AM ICT 7:07 PM ICT
Astronomical Twilight 5:00 AM ICT 7:31 PM ICT
Moon 8:11 AM ICT (9/8) 8:25 PM ICT (9/8)
Length of Visible Light 12h 53m
Length of Day
12h 12m
Waxing Crescent, 8% of the Moon is Illuminated
Sep 8
Waxing Crescent
Sep 13
First Quarter
Sep 19
Full
Sep 27
Last Quarter
Oct 5
New

Hourly Weather History & Observations

Time (ICT) Temp. Heat Index Dew Point Humidity Pressure Visibility Wind Dir Wind Speed Gust Speed Precip Events Conditions
12:00 AM 75.2 °F - 73.4 °F 94% 29.89 in 6.2 mi Calm Calm - N/A   Mostly Cloudy
12:30 AM 75.2 °F - 73.4 °F 94% 29.86 in 6.2 mi Calm Calm - N/A   Mostly Cloudy
1:00 AM 75 °F - 73 °F 92% 29.86 in 6 mi Calm Calm - -   Partly Cloudy
1:30 AM 75.2 °F - 73.4 °F 94% 29.83 in 6.2 mi Calm Calm - N/A   Mostly Cloudy
2:00 AM 75.2 °F - 73.4 °F 94% 29.83 in 6.2 mi Calm Calm - N/A   Mostly Cloudy
3:00 AM 73.4 °F - 71.6 °F 94% 29.83 in 6.2 mi Calm Calm - N/A   Mostly Cloudy
3:30 AM 73.4 °F - 71.6 °F 94% 29.80 in 6.2 mi Calm Calm - N/A   Mostly Cloudy
4:00 AM 73.4 °F - 71.6 °F 94% 29.80 in 6.2 mi Calm Calm - N/A   Mostly Cloudy
4:30 AM 73.4 °F - 71.6 °F 94% 29.80 in 5.0 mi Calm Calm - N/A   Mostly Cloudy
5:30 AM 73.4 °F - 71.6 °F 94% 29.83 in 5.0 mi Calm Calm - N/A   Mostly Cloudy
6:00 AM 73.4 °F - 71.6 °F 94% 29.86 in 5.0 mi Calm Calm - N/A   Mostly Cloudy
6:30 AM 73.4 °F - 71.6 °F 94% 29.86 in 5.0 mi Calm Calm - N/A   Mostly Cloudy
7:00 AM 75.2 °F - 73.4 °F 94% 29.86 in 5.0 mi Calm Calm - N/A   Mostly Cloudy
7:30 AM 75.2 °F - 73.4 °F 94% 29.86 in 5.0 mi Calm Calm - N/A   Mostly Cloudy
8:00 AM 77.0 °F - 75.2 °F 94% 29.86 in 5.0 mi South 3.5 mph - N/A   Mostly Cloudy
8:30 AM 80.6 °F 86.2 °F 75.2 °F 84% 29.89 in 5.6 mi South 4.6 mph - N/A   Mostly Cloudy
9:00 AM 82.4 °F 89.5 °F 75.2 °F 79% 29.89 in 6.2 mi SSW 9.2 mph - N/A   Mostly Cloudy
9:30 AM 84.2 °F 90.9 °F 73.4 °F 70% 29.89 in 6.2 mi SW 8.1 mph - N/A   Mostly Cloudy
10:00 AM 84.2 °F 90.9 °F 73.4 °F 70% 29.89 in 6.2 mi SW 6.9 mph - N/A   Mostly Cloudy
10:30 AM 86.0 °F 93.4 °F 73.4 °F 66% 29.89 in 6.2 mi WSW 8.1 mph - N/A   Mostly Cloudy
11:00 AM 86.0 °F 93.4 °F 73.4 °F 66% 29.89 in 6.2 mi WSW 10.4 mph - N/A   Mostly Cloudy
11:30 AM 87.8 °F 93.8 °F 71.6 °F 58% 29.86 in 6.2 mi SW 9.2 mph - N/A   Mostly Cloudy
12:00 PM 89.6 °F 98.2 °F 73.4 °F 59% 29.86 in 6.2 mi SSW 9.2 mph - N/A   Mostly Cloudy
12:30 PM 89.6 °F 94.7 °F 69.8 °F 52% 29.83 in 6.2 mi SW 9.2 mph - N/A   Mostly Cloudy
1:00 PM 88 °F - 71 °F 47% 29.84 in 6 mi West 10.4 mph - -   Partly Cloudy
1:00 PM 87.8 °F 92.6 °F 69.8 °F 55% 29.83 in 6.2 mi West 10.4 mph - N/A   Mostly Cloudy
1:30 PM 89.6 °F 98.2 °F 73.4 °F 59% 29.80 in 6.2 mi WNW 12.7 mph - N/A   Mostly Cloudy
2:00 PM 87.8 °F 92.6 °F 69.8 °F 55% 29.80 in 6.2 mi SW 4.6 mph - N/A   Mostly Cloudy
2:30 PM 87.8 °F 93.8 °F 71.6 °F 58% 29.77 in 6.2 mi WSW 6.9 mph - N/A   Mostly Cloudy
3:00 PM 87.8 °F 93.8 °F 71.6 °F 58% 29.77 in 6.2 mi WSW 6.9 mph - N/A   Mostly Cloudy
3:30 PM 87.8 °F 95.6 °F 73.4 °F 62% 29.77 in 6.2 mi WSW 6.9 mph - N/A   Mostly Cloudy
4:00 PM 80.6 °F 86.2 °F 75.2 °F 84% 29.77 in 5.6 mi NNE 12.7 mph - N/A Rain Light Rain
4:30 PM 77.0 °F - 73.4 °F 89% 29.80 in 5.0 mi NE 5.8 mph - N/A Rain Rain
5:00 PM 77.0 °F - 73.4 °F 89% 29.80 in 5.0 mi East 6.9 mph - N/A Rain Rain
5:30 PM 77.0 °F - 75.2 °F 94% 29.80 in 5.0 mi ENE 5.8 mph - N/A Rain Light Rain
6:00 PM 77.0 °F - 75.2 °F 94% 29.80 in 5.0 mi NE 3.5 mph - N/A Rain Light Rain
6:30 PM 77.0 °F - 75.2 °F 94% 29.80 in 5.0 mi NNE 2.3 mph - N/A   Mostly Cloudy
7:00 PM 77 °F - 74 °F 87% 29.84 in 5 mi NNE 2.3 mph - - Rain Light Rain
7:00 PM 77.0 °F - 73.4 °F 89% 29.83 in 5.0 mi NNE 2.3 mph - N/A   Mostly Cloudy
7:30 PM 77.0 °F - 73.4 °F 89% 29.86 in 5.0 mi Calm Calm - N/A   Mostly Cloudy
8:00 PM 78.8 °F - 73.4 °F 83% 29.86 in 5.0 mi NNW 3.5 mph - N/A Rain Light Rain
8:30 PM 77.0 °F - 73.4 °F 89% 29.89 in 5.0 mi Calm Calm - N/A Rain Light Rain
9:00 PM 77.0 °F - 75.2 °F 94% 29.89 in 5.6 mi Calm Calm - N/A Rain Light Rain
9:30 PM 77.0 °F - 75.2 °F 94% 29.89 in 3.7 mi Calm Calm - N/A Rain Light Rain
10:00 PM 77.0 °F - 75.2 °F 94% 29.92 in 3.7 mi WNW 3.5 mph - N/A Rain Light Rain
10:30 PM 77.0 °F - 75.2 °F 94% 29.92 in 3.1 mi NNW 5.8 mph - N/A Rain Light Rain
11:00 PM 75.2 °F - 73.4 °F 94% 29.92 in 4.3 mi West 4.6 mph - N/A Rain Light Rain
11:30 PM 77.0 °F - 75.2 °F 94% 29.92 in 4.3 mi Calm Calm - N/A Rain Light Rain